Location: Eaton
(41.3139°N, 82.0207°W)
Time: 08:31:54
(UTC+00:00)

Cosmos 1455 - Pass Details

Date: 17 June 2021
Orbit: 496 x 522 km, 82.5° (Epoch: 27 July)

Event Time Altitude Azimuth Distance (km) Brightness Sun altitude
Rises 04:16:19 0° 359° (N) 2,645 7.1 -23.1°
Reaches altitude 10° 04:18:34 10° 8° (N) 1,749 5.8 -23.3°
Enters shadow 04:21:43 37° 58° (ENE) 807 3.2 -23.4°
